Lewistown, MT

1:54 PM MST on January 23, 2018 (GMT -0700)
Lewistown Municipal

Weather History for KLWT - November, 2012

Change the Weather History Date:

Saturday, November 10, 2012

  Actual Average Record
Temperature  
Mean Temperature 3 °F 34 °F  
Max Temperature 12 °F 46 °F 76 °F (1905)
Min Temperature -6 °F 23 °F -24 °F (1911)
Degree Days  
Heating Degree Days 62 31  
Month to date heating degree days 282 288  
Since 1 July heating degree days 1304 1426  
Cooling Degree Days 0 0  
Month to date cooling degree days 0 0  
Year to date cooling degree days 314 210  
Moisture  
Dew Point 2 °F    
Average Humidity 88    
Maximum Humidity 95    
Minimum Humidity 80    
Precipitation  
Precipitation 0.01 in 0.02 in 0.83 in (1955)
Month to date precipitation 0.43 0.24  
Year to date precipitation 14.82 15.72  
Sea Level Pressure  
Sea Level Pressure 30.00 in    
Wind  
Wind Speed 10 mph (West)    
Max Wind Speed 16 mph    
Max Gust Speed 20 mph    
Visibility 3 miles    
Events Snow    
T = Trace of Precipitation, MM = Missing Value Source: NWS Daily Summary

Daily Weather History Graph

Daily Weather History Graph

Search for Another Location

Airport or City:

Trip Planner

Search our weather history database for the weather conditions in past years. The results will help you decide how hot, cold, wet, or windy it might be!

Date:

Astronomy

Nov. 10, 2012 Rise Set
Actual Time 7:14 AM MST 4:48 PM MST
Civil Twilight 6:42 AM MST 5:21 PM MST
Nautical Twilight 6:05 AM MST 5:57 PM MST
Astronomical Twilight 5:29 AM MST 6:33 PM MST
Moon 3:10 AM MST (11/10) 2:47 PM MST (11/10)
Length of Visible Light 10h 38m
Length of Day
9h 33m
Waning Crescent, 14% of the Moon is Illuminated
Nov 10
Waning Crescent
Nov 13
New
Nov 20
First Quarter
Nov 28
Full
Dec 6
Last Quarter

Hourly Weather History & Observations

Time (MST) Temp. Windchill Dew Point Humidity Pressure Visibility Wind Dir Wind Speed Gust Speed Precip Events Conditions
12:15 AM 12.2 °F -0.2 °F 8.6 °F 85% 29.87 in 1.5 mi West 9.2 mph - 0.00 in Snow Light Snow
12:30 AM 10.4 °F -2.4 °F 8.6 °F 92% 29.86 in 1.0 mi WNW 9.2 mph - 0.00 in Snow Light Snow
12:41 AM 10.4 °F -1.5 °F 8.6 °F 92% 29.86 in 1.0 mi WNW 8.1 mph - 0.00 in Snow Light Snow
12:54 AM 10.9 °F -2.6 °F 8.1 °F 88% 30.04 in 1.2 mi West 10.4 mph - 0.00 in Snow Light Snow
1:08 AM 10.4 °F -1.5 °F 8.6 °F 92% 29.87 in 1.2 mi West 8.1 mph - 0.00 in Snow Light Snow
1:49 AM 10.4 °F -4.8 °F 6.8 °F 85% 29.86 in 2.5 mi WNW 12.7 mph - 0.00 in Snow Light Snow
1:54 AM 10.0 °F -3.7 °F 7.0 °F 87% 30.04 in 2.0 mi WNW 10.4 mph - 0.00 in Snow Light Snow
2:17 AM 10.4 °F -4.8 °F 6.8 °F 85% 29.89 in 3.0 mi WNW 12.7 mph - 0.00 in Snow Light Snow
2:25 AM 10.4 °F -3.3 °F 6.8 °F 85% 29.89 in 1.8 mi WNW 10.4 mph - 0.00 in Snow Light Snow
2:43 AM 10.4 °F -2.4 °F 6.8 °F 85% 29.87 in 0.8 mi WNW 9.2 mph - 0.00 in Snow Light Snow
2:51 AM 10.4 °F -3.3 °F 6.8 °F 85% 29.87 in 0.8 mi WNW 10.4 mph - 0.00 in Snow Light Snow
2:54 AM 9.0 °F -4.2 °F 7.0 °F 92% 30.06 in 1.0 mi WNW 9.2 mph - 0.00 in Snow Light Snow
3:19 AM 8.6 °F -4.7 °F 6.8 °F 92% 29.89 in 1.0 mi West 9.2 mph - 0.00 in Snow Light Snow
3:27 AM 8.6 °F -5.5 °F 6.8 °F 92% 29.89 in 0.8 mi West 10.4 mph - 0.00 in Snow Light Snow
3:54 AM 9.0 °F -5.9 °F 6.1 °F 88% 30.05 in 1.2 mi WNW 11.5 mph - 0.01 in Snow Light Snow
4:24 AM 8.6 °F -7.0 °F 5.0 °F 85% 29.88 in 1.5 mi WNW 12.7 mph - 0.00 in Snow Light Snow
4:52 AM 8.6 °F -4.7 °F 5.0 °F 85% 29.88 in 1.0 mi WNW 9.2 mph - 0.00 in Snow Light Snow
5:41 AM 6.8 °F -8.6 °F 3.2 °F 85% 29.89 in 0.8 mi West 11.5 mph - 0.00 in Snow Light Snow
5:54 AM 7.0 °F -9.8 °F 3.9 °F 87% 30.09 in 1.0 mi West 13.8 mph - 0.00 in Snow Light Snow
6:28 AM 6.8 °F -9.3 °F 3.2 °F 85% 29.90 in 1.5 mi WNW 12.7 mph - 0.00 in Snow Light Snow
6:54 AM 7.0 °F -5.7 °F 3.9 °F 87% 30.11 in 1.2 mi WNW 8.1 mph - 0.00 in Snow Light Snow
7:03 AM 6.8 °F -4.8 °F 3.2 °F 85% 29.91 in 1.0 mi WNW 6.9 mph - 0.00 in Snow Light Snow
7:10 AM 6.8 °F -8.6 °F 3.2 °F 85% 29.91 in 0.8 mi WNW 11.5 mph - 0.00 in Snow Light Snow
7:17 AM 6.8 °F -6.9 °F 3.2 °F 85% 29.91 in 1.2 mi West 9.2 mph - 0.00 in Snow Light Snow
7:27 AM 6.8 °F -6.9 °F 3.2 °F 85% 29.91 in 0.8 mi West 9.2 mph - 0.00 in Snow Light Snow
7:37 AM 6.8 °F -6.9 °F 3.2 °F 85% 29.91 in 0.8 mi WNW 9.2 mph - 0.00 in Snow Light Snow
7:54 AM 7.0 °F -5.7 °F 3.9 °F 87% 30.13 in 0.8 mi WNW 8.1 mph - 0.00 in Snow Light Snow
8:22 AM 6.8 °F -8.6 °F 3.2 °F 85% 29.92 in 1.0 mi WNW 11.5 mph - 0.00 in Snow Light Snow
8:54 AM 6.1 °F -6.8 °F 3.0 °F 87% 30.13 in 1.0 mi WNW 8.1 mph - 0.00 in Snow Light Snow
9:54 AM 6.1 °F -8.7 °F 3.0 °F 87% 30.12 in 1.2 mi West 10.4 mph - 0.00 in Snow Light Snow
10:13 AM 6.8 °F -7.8 °F 3.2 °F 85% 29.92 in 0.8 mi WNW 10.4 mph - 0.00 in Snow Light Snow
10:24 AM 6.8 °F -9.3 °F 3.2 °F 85% 29.92 in 1.5 mi WNW 12.7 mph - 0.00 in Snow Light Snow
10:54 AM 6.1 °F -10.2 °F 1.9 °F 83% 30.14 in 1.8 mi WNW 12.7 mph - 0.00 in Snow Light Snow
11:54 AM 6.1 °F -6.8 °F 3.0 °F 87% 30.14 in 1.8 mi West 8.1 mph - 0.00 in Snow Light Snow
12:28 PM 6.8 °F -7.8 °F 1.4 °F 79% 29.93 in 1.5 mi WNW 10.4 mph - 0.00 in Snow Light Snow
12:33 PM 6.8 °F -7.8 °F 1.4 °F 79% 29.93 in 2.0 mi WNW 10.4 mph - 0.00 in Snow Light Snow
12:54 PM 6.1 °F -9.5 °F 1.9 °F 83% 30.14 in 3.0 mi WNW 11.5 mph - 0.00 in Snow Light Snow
1:06 PM 6.8 °F -7.8 °F 1.4 °F 79% 29.93 in 6.0 mi West 10.4 mph - 0.00 in   Haze
1:54 PM 5.0 °F -13.0 °F -0.0 °F 80% 30.14 in 10.0 mi WNW 15.0 mph - 0.00 in   Overcast
2:54 PM 3.0 °F -9.3 °F -0.9 °F 84% 30.15 in 10.0 mi West 6.9 mph - N/A   Scattered Clouds
3:21 PM 1.4 °F -14.5 °F -0.4 °F 92% 29.93 in 8.0 mi West 10.4 mph - N/A   Mostly Cloudy
3:54 PM 1.0 °F -11.7 °F -2.0 °F 87% 30.17 in 10.0 mi WSW 6.9 mph - N/A   Partly Cloudy
4:47 PM -2.2 °F -18.0 °F -5.8 °F 85% 29.95 in 8.0 mi WSW 9.2 mph - N/A   Partly Cloudy
4:54 PM -4.0 °F -20.2 °F -6.0 °F 91% 30.21 in 9.0 mi WSW 9.2 mph - N/A   Scattered Clouds
5:38 PM -5.8 °F -22.4 °F -7.6 °F 92% 29.96 in 6.0 mi WSW 9.2 mph - N/A   Mostly Cloudy
5:54 PM -5.1 °F -25.9 °F -9.0 °F 83% 30.22 in 9.0 mi WSW 15.0 mph - N/A   Mostly Cloudy
6:07 PM -4.0 °F -23.7 °F -7.6 °F 85% 29.96 in 6.0 mi WSW 13.8 mph - N/A   Mostly Cloudy
6:54 PM -0.9 °F -18.3 °F -5.1 °F 83% 30.21 in 3.0 mi WSW 11.5 mph - 0.00 in Snow Light Snow
7:16 PM -2.2 °F -16.8 °F -7.6 °F 78% 29.97 in 10.0 mi WSW 8.1 mph - 0.00 in   Mostly Cloudy
7:39 PM -0.4 °F -18.4 °F -2.2 °F 92% 29.96 in 2.5 mi SW 12.7 mph - 0.00 in Snow Light Snow
7:49 PM 1.4 °F -15.3 °F -2.2 °F 85% 29.96 in 2.5 mi WSW 11.5 mph - 0.00 in Snow Light Snow
7:54 PM 1.0 °F -15.8 °F -2.0 °F 87% 30.20 in 2.5 mi WSW 11.5 mph - 0.00 in Snow Light Snow
8:12 PM 1.4 °F -15.3 °F -2.2 °F 85% 29.95 in 4.0 mi WSW 11.5 mph - 0.00 in Snow Light Snow
9:54 PM 1.9 °F -13.8 °F -2.9 °F 80% 30.18 in 10.0 mi SW 10.4 mph - N/A   Overcast
10:54 PM 3.0 °F -9.3 °F -0.9 °F 84% 30.17 in 10.0 mi WSW 6.9 mph - N/A   Overcast
11:54 PM 3.9 °F -3.4 °F -0.9 °F 80% 30.16 in 10.0 mi WNW 3.5 mph - N/A   Overcast